SV8FES-9 Weather Reports


Display with metric or nautical units.
time (UTC)temp
F
wind
direction
speed
MPH
gust
MPH
rain 1hr
in
rain 24hr
in
rain mn
in
humidity
%
barometer
mb
20260504100413 60 146 23.0 30.0 0.00 0.01 0.00 1 1018.3
20260504100314 60 150 23.0 30.0 0.00 0.01 0.00 1 1018.4
20260504100213 59 149 23.0 30.0 0.00 0.01 0.00 1 1018.4
20260504100110 59 146 24.0 30.0 0.00 0.01 0.00 1 1018.5
20260504081920 59 149 25.0 32.0 0.00 0.01 0.00 1 1018.1
20260504081821 59 150 25.0 32.0 0.00 0.01 0.00 1 1018.1
20260504081720 59 148 25.0 32.0 0.00 0.01 0.00 1 1018.3
20260504081616 59 147 25.0 32.0 0.00 0.01 0.00 1 1018.3
20260504081513 59 149 25.0 32.0 0.00 0.01 0.00 1 1018.3
20260504081415 59 148 25.0 31.0 0.00 0.01 0.00 1 1018.2
20260504081315 59 148 25.0 31.0 0.00 0.01 0.00 1 1018.3
20260504081215 59 150 25.0 31.0 0.00 0.01 0.00 1 1018.2
20260504081111 59 147 25.0 31.0 0.00 0.01 0.00 1 1018.2
20260504081007 59 146 24.0 31.0 0.00 0.01 0.00 1 1018.2
20260504080907 59 146 24.0 30.0 0.00 0.01 0.00 1 1018.1
20260504080807 59 146 24.0 30.0 0.00 0.01 0.00 1 1018.2
20260504080707 59 149 24.0 32.0 0.00 0.01 0.00 1 1018.2
20260504080608 59 146 24.0 32.0 0.00 0.01 0.00 1 1018.2
20260504080507 59 144 24.0 32.0 0.00 0.01 0.00 1 1018.0
20260504080407 59 147 24.0 32.0 0.00 0.01 0.00 1 1018.2
20260504080307 59 148 23.0 32.0 0.00 0.01 0.00 1 1018.1
20260504080206 59 148 23.0 32.0 0.00 0.01 0.00 1 1018.0
20260504080108 59 151 23.0 32.0 0.00 0.01 0.00 1 1018.1
20260504070357 59 152 24.0 32.0 0.00 0.01 0.00 1 1017.5
20260504070300 59 147 25.0 32.0 0.00 0.01 0.00 1 1017.4
20260504070153 59 147 25.0 32.0 0.00 0.01 0.00 1 1017.4
20260504060240 58 144 26.0 34.0 0.00 0.01 0.00 1 1016.9
20260504060139 58 148 26.0 32.0 0.00 0.01 0.00 1 1016.9
20260504050728 58 148 25.0 31.0 0.00 0.01 0.00 1 1016.5
20260504050628 58 147 26.0 31.0 0.00 0.01 0.00 1 1016.6
20260504050526 58 148 26.0 33.0 0.00 0.01 0.00 1 1016.5
20260504050428 58 150 26.0 33.0 0.00 0.01 0.00 1 1016.5
20260504050323 58 147 26.0 33.0 0.00 0.01 0.00 1 1016.5
20260504050223 58 149 26.0 33.0 0.00 0.01 0.00 1 1016.6
20260504050123 58 149 26.0 33.0 0.00 0.01 0.00 1 1016.5
20260504050023 58 147 26.0 33.0 0.00 0.01 0.00 1 1016.5
20260504045922 58 147 25.0 33.0 0.00 0.01 0.00 1 1016.5
20260504045818 58 150 25.0 33.0 0.00 0.01 0.00 1 1016.4
20260504045715 58 149 25.0 33.0 0.00 0.01 0.00 1 1016.4
20260504045615 58 147 24.0 33.0 0.00 0.01 0.00 1 1016.3
20260504045516 58 150 24.0 31.0 0.00 0.01 0.00 1 1016.4
20260504045415 58 150 24.0 30.0 0.00 0.01 0.00 1 1016.5
20260504045309 58 151 24.0 31.0 0.00 0.01 0.00 1 1016.3
20260504045209 58 151 24.0 31.0 0.00 0.01 0.00 1 1016.3
20260504045109 58 151 24.0 31.0 0.00 0.01 0.00 1 1016.3
20260504045008 58 150 24.0 31.0 0.00 0.01 0.00 1 1016.3
20260504044910 58 149 24.0 31.0 0.00 0.01 0.00 1 1016.3
20260504044804 58 148 25.0 32.0 0.00 0.01 0.00 1 1016.4
20260504044706 57 147 25.0 32.0 0.00 0.01 0.00 1 1016.4
20260504044604 58 150 25.0 32.0 0.00 0.01 0.00 1 1016.5
20260504044504 57 150 25.0 34.0 0.00 0.01 0.00 1 1016.3
20260504044404 57 148 26.0 34.0 0.00 0.01 0.00 1 1016.4
20260504044256 58 153 26.0 35.0 0.00 0.01 0.00 1 1016.4
20260504044209 58 151 27.0 35.0 0.00 0.01 0.00 1 1016.3
20260504044202 58 150 26.0 35.0 0.00 0.01 0.00 1 1016.3
20260504044155 58 150 27.0 35.0 0.00 0.01 0.00 1 1016.3
20260504044151 57 149 27.0 35.0 0.00 0.01 0.00 1 1016.3
20260504044145 57 151 27.0 35.0 0.00 0.01 0.00 1 1016.3
20260504043652 58 155 27.0 35.0 0.00 0.01 0.00 1 1016.4
20260504043552 58 153 26.0 35.0 0.00 0.01 0.00 1 1016.3
20260504043452 57 150 26.0 35.0 0.00 0.01 0.00 1 1016.2
20260504043351 57 147 26.0 34.0 0.00 0.01 0.00 1 1016.3
20260504043245 57 148 26.0 33.0 0.00 0.01 0.00 1 1016.3
20260504043151 57 152 26.0 32.0 0.00 0.01 0.00 1 1016.3
20260504043146 57 148 26.0 33.0 0.00 0.01 0.00 1 1016.3
20260504043139 57 149 25.0 32.0 0.00 0.01 0.00 1 1016.3
20260504043130 57 146 25.0 32.0 0.00 0.01 0.00 1 1016.3
20260504042738 57 154 25.0 32.0 0.00 0.01 0.00 1 1016.3
20260504042640 57 148 25.0 32.0 0.00 0.01 0.00 1 1016.3
20260504042541 57 148 25.0 32.0 0.00 0.01 0.00 1 1016.4
20260504042439 57 149 25.0 32.0 0.00 0.01 0.00 1 1016.4
20260504042339 57 148 25.0 33.0 0.00 0.01 0.00 1 1016.4
20260504042236 57 148 25.0 33.0 0.00 0.01 0.00 1 1016.4
20260504042158 57 148 26.0 33.0 0.00 0.01 0.00 1 1016.3
20260504042150 57 150 27.0 33.0 0.00 0.01 0.00 1 1016.3
20260504042145 57 148 26.0 33.0 0.00 0.01 0.00 1 1016.3
20260504042139 57 150 26.0 33.0 0.00 0.01 0.00 1 1016.3
20260504041730 57 150 27.0 33.0 0.00 0.01 0.00 1 1016.2
20260504041630 57 147 26.0 33.0 0.00 0.01 0.00 1 1016.2
20260504041529 57 151 26.0 33.0 0.00 0.01 0.00 1 1016.3
20260504041428 57 147 26.0 33.0 0.00 0.01 0.00 1 1016.2
20260504041328 57 145 26.0 32.0 0.00 0.01 0.00 1 1016.2
20260504041224 57 148 25.0 32.0 0.00 0.01 0.00 1 1016.1
20260504041123 57 147 26.0 32.0 0.00 0.01 0.00 1 1016.2
20260504041023 57 146 26.0 35.0 0.00 0.01 0.00 1 1016.1
20260504040921 57 149 26.0 35.0 0.00 0.01 0.00 1 1016.0
20260504040821 57 148 26.0 35.0 0.00 0.01 0.00 1 1016.0
20260504040716 57 153 27.0 35.0 0.00 0.01 0.00 1 1016.1
20260504040627 57 152 27.0 35.0 0.00 0.01 0.00 1 1015.9
20260504040516 57 145 27.0 35.0 0.00 0.01 0.00 1 1015.9
20260504040415 57 151 28.0 35.0 0.00 0.01 0.00 1 1015.9
20260504040318 57 153 28.0 35.0 0.00 0.01 0.00 1 1015.9
20260504040213 57 150 28.0 35.0 0.00 0.01 0.00 1 1015.9
20260504040112 57 148 28.0 35.0 0.00 0.01 0.00 1 1016.0
20260504040012 57 148 28.0 35.0 0.00 0.01 0.00 1 1015.8
20260504035912 57 151 28.0 35.0 0.00 0.01 0.00 1 1015.8
20260504035810 57 148 28.0 35.0 0.00 0.01 0.00 1 1015.8
20260504035703 57 145 27.0 33.0 0.00 0.01 0.00 1 1015.8
20260504035604 57 148 27.0 33.0 0.00 0.01 0.00 1 1015.8
20260504035505 57 148 27.0 33.0 0.00 0.01 0.00 1 1015.8
20260504035404 57 146 27.0 33.0 0.00 0.01 0.00 1 1015.8
20260504035304 57 150 27.0 31.0 0.00 0.01 0.00 1 1015.8
20260504035158 57 148 27.0 31.0 0.00 0.01 0.00 1 1015.7
20260504035058 57 150 27.0 31.0 0.00 0.01 0.00 1 1015.7
20260504034958 57 146 27.0 33.0 0.00 0.01 0.00 1 1015.7
20260504034857 57 147 27.0 33.0 0.00 0.01 0.00 1 1015.7
20260504034758 57 151 28.0 34.0 0.00 0.01 0.00 1 1015.7
20260504034652 57 149 28.0 34.0 0.00 0.01 0.00 1 1015.6
20260504034553 57 146 28.0 34.0 0.00 0.01 0.00 1 1015.6
20260504034452 57 148 29.0 34.0 0.00 0.01 0.00 1 1015.6
20260504034352 57 148 29.0 34.0 0.00 0.01 0.00 1 1015.6
20260504034251 57 146 29.0 34.0 0.00 0.01 0.00 1 1015.6
20260504034144 57 150 29.0 34.0 0.00 0.01 0.00 1 1015.6
20260504034045 57 150 29.0 35.0 0.00 0.01 0.00 1 1015.6
20260504033945 57 150 29.0 35.0 0.00 0.01 0.00 1 1015.5
20260504033846 57 144 29.0 35.0 0.00 0.01 0.00 1 1015.6
20260504033746 57 147 29.0 35.0 0.00 0.01 0.00 1 1015.5
20260504033638 57 151 29.0 36.0 0.00 0.01 0.00 1 1015.5
20260504033539 57 150 28.0 36.0 0.00 0.01 0.00 1 1015.6
20260504033439 57 150 28.0 36.0 0.00 0.01 0.00 1 1015.5
20260504033340 57 146 28.0 36.0 0.00 0.01 0.00 1 1015.5
20260504033240 57 148 28.0 36.0 0.00 0.01 0.00 1 1015.5
20260504033135 57 148 28.0 36.0 0.00 0.01 0.00 1 1015.6
20260504033036 57 150 27.0 36.0 0.00 0.01 0.00 1 1015.6
20260504032935 57 147 27.0 36.0 0.00 0.01 0.00 1 1015.5
20260504032836 57 148 26.0 36.0 0.00 0.01 0.00 1 1015.6
20260504032734 57 146 25.0 36.0 0.00 0.01 0.00 1 1015.6
20260504032629 57 146 24.0 33.0 0.00 0.01 0.00 1 1015.6
20260504032529 57 148 25.0 33.0 0.00 0.01 0.00 1 1015.6
20260504032429 57 147 25.0 34.0 0.00 0.01 0.00 1 1015.5
20260504032330 57 148 25.0 34.0 0.00 0.01 0.00 1 1015.6
20260504032228 57 150 24.0 34.0 0.00 0.01 0.00 1 1015.5
20260504032122 57 144 24.0 34.0 0.00 0.01 0.00 1 1015.6
20260504032022 57 148 25.0 34.0 0.00 0.01 0.00 1 1015.5
20260504031922 57 149 26.0 34.0 0.00 0.01 0.00 1 1015.6
20260504031821 57 150 26.0 34.0 0.00 0.01 0.00 1 1015.6
20260504031722 57 153 27.0 34.0 0.00 0.01 0.00 1 1015.6
20260504031616 57 148 27.0 34.0 0.00 0.01 0.00 1 1015.5
20260504031516 57 148 27.0 34.0 0.00 0.01 0.00 1 1015.6
20260504031417 57 152 27.0 33.0 0.00 0.01 0.00 1 1015.6
20260504031316 57 152 27.0 33.0 0.00 0.01 0.00 1 1015.6
20260504031216 57 150 27.0 33.0 0.00 0.01 0.00 1 1015.5
20260504031110 57 146 27.0 33.0 0.00 0.01 0.00 1 1015.6
20260504031010 57 149 26.0 33.0 0.00 0.01 0.00 1 1015.5
20260504030911 57 146 26.0 33.0 0.00 0.01 0.00 1 1015.5
20260504030810 57 146 26.0 33.0 0.00 0.01 0.00 1 1015.6
20260504030710 57 148 26.0 33.0 0.00 0.01 0.00 1 1015.5
20260504030608 57 149 26.0 33.0 0.00 0.01 0.00 1 1015.5
20260504030505 57 148 26.0 33.0 0.00 0.01 0.00 1 1015.5
20260504030403 57 149 26.0 35.0 0.00 0.01 0.00 1 1015.5
20260504030302 57 150 26.0 35.0 0.00 0.01 0.00 1 1015.6
20260504030204 57 147 27.0 35.0 0.00 0.01 0.00 1 1015.5
20260504030057 57 148 27.0 35.0 0.00 0.01 0.00 1 1015.6
20260504025959 57 148 27.0 35.0 0.00 0.01 0.00 1 1015.5
20260504025858 57 150 27.0 35.0 0.00 0.01 0.00 1 1015.5
20260504025757 57 153 27.0 35.0 0.00 0.01 0.00 1 1015.5
20260504025657 57 149 27.0 35.0 0.00 0.01 0.00 1 1015.5
20260504025551 57 150 27.0 35.0 0.00 0.01 0.00 1 1015.5
20260504025452 57 148 26.0 35.0 0.00 0.01 0.00 1 1015.5
20260504025352 57 148 26.0 32.0 0.00 0.01 0.00 1 1015.5
20260504025253 57 150 25.0 32.0 0.00 0.01 0.00 1 1015.5
20260504025152 57 148 25.0 32.0 0.00 0.01 0.00 1 1015.5
20260504025047 57 148 24.0 32.0 0.00 0.01 0.00 1 1015.5
20260504024949 57 149 24.0 31.0 0.00 0.01 0.00 1 1015.5
20260504024847 57 145 24.0 30.0 0.00 0.01 0.00 1 1015.5
20260504024748 57 150 24.0 30.0 0.00 0.01 0.00 1 1015.5
20260504024646 57 147 23.0 30.0 0.00 0.01 0.00 1 1015.5
20260504024540 57 150 24.0 32.0 0.00 0.01 0.00 1 1015.5
20260504024439 57 154 24.0 32.0 0.00 0.01 0.00 1 1015.5
20260504024341 57 153 25.0 32.0 0.00 0.01 0.00 1 1015.5
20260504024238 57 152 25.0 32.0 0.00 0.01 0.00 1 1015.6
20260504024139 57 155 25.0 32.0 0.00 0.01 0.00 1 1015.6
20260504024033 57 150 26.0 32.0 0.00 0.01 0.00 1 1015.5
20260504023934 57 151 26.0 32.0 0.00 0.01 0.00 1 1015.6
20260504023834 57 152 26.0 32.0 0.00 0.01 0.00 1 1015.5
20260504023733 57 151 27.0 32.0 0.00 0.01 0.00 1 1015.5
20260504023634 57 149 27.0 32.0 0.00 0.01 0.00 1 1015.5
20260504023530 57 151 27.0 32.0 0.00 0.01 0.00 1 1015.5
20260504023429 57 150 27.0 34.0 0.00 0.01 0.00 1 1015.6
20260504023328 57 150 27.0 34.0 0.00 0.01 0.00 1 1015.6
20260504023228 57 150 27.0 34.0 0.00 0.01 0.00 1 1015.6
20260504023128 57 150 27.0 34.0 0.00 0.01 0.00 1 1015.6
20260504023023 57 150 26.0 34.0 0.00 0.01 0.00 1 1015.6
20260504022922 57 148 26.0 34.0 0.00 0.01 0.00 1 1015.5
20260504022822 57 150 26.0 34.0 0.00 0.01 0.00 1 1015.6
20260504022722 57 150 27.0 34.0 0.00 0.01 0.00 1 1015.6
20260504022622 57 150 26.0 34.0 0.00 0.01 0.00 1 1015.6
20260504022516 57 151 26.0 34.0 0.00 0.01 0.00 1 1015.6
20260504022415 57 148 26.0 32.0 0.00 0.01 0.00 1 1015.6
20260504022316 57 150 25.0 32.0 0.00 0.01 0.00 1 1015.7
20260504022214 57 148 25.0 32.0 0.00 0.01 0.00 1 1015.6
20260504022115 57 150 25.0 32.0 0.00 0.01 0.00 1 1015.7
20260504022012 57 150 24.0 32.0 0.00 0.01 0.00 1 1015.7
20260504021910 57 150 24.0 31.0 0.00 0.01 0.00 1 1015.7
20260504021810 57 151 24.0 31.0 0.00 0.01 0.00 1 1015.7
20260504021710 57 149 24.0 36.0 0.00 0.01 0.00 1 1015.8
20260504021610 57 147 24.0 36.0 0.00 0.01 0.00 1 1015.7
20260504021504 57 152 25.0 36.0 0.00 0.01 0.00 1 1015.8
20260504021404 57 151 25.0 36.0 0.00 0.01 0.00 1 1015.7
20260504021304 57 151 26.0 36.0 0.00 0.01 0.00 1 1015.7
20260504021202 57 150 26.0 36.0 0.00 0.01 0.00 1 1015.8
20260504021103 57 152 25.0 36.0 0.00 0.01 0.00 1 1015.7
20260504020958 57 150 26.0 36.0 0.00 0.01 0.00 1 1015.8
20260504020857 57 150 26.0 36.0 0.00 0.01 0.00 1 1015.7
20260504020758 57 153 25.0 36.0 0.00 0.01 0.00 1 1015.7
20260504020656 57 147 25.0 33.0 0.00 0.01 0.00 1 1015.7
20260504020557 57 153 25.0 33.0 0.00 0.01 0.00 1 1015.7
20260504020452 57 149 24.0 33.0 0.00 0.01 0.00 1 1015.7
20260504020351 57 146 23.0 33.0 0.00 0.01 0.00 1 1015.7
20260504020253 57 144 24.0 33.0 0.00 0.01 0.00 1 1015.7
20260504020150 57 146 24.0 33.0 0.00 0.01 0.00 1 1015.7
20260504020052 57 154 24.0 33.0 0.00 0.01 0.00 1 1015.7
20260504015947 57 147 24.0 33.0 0.00 0.01 0.00 1 1015.8
20260504015847 57 152 24.0 33.0 0.00 0.01 0.00 1 1015.7
20260504015747 57 152 23.0 33.0 0.00 0.01 0.00 1 1015.8
20260504015647 57 147 23.0 32.0 0.00 0.01 0.00 1 1015.8
20260504015546 57 146 23.0 31.0 0.00 0.01 0.00 1 1015.7
20260504015439 57 153 24.0 32.0 0.00 0.01 0.00 1 1015.8
20260504015339 57 154 24.0 32.0 0.00 0.01 0.00 1 1015.7
20260504015240 57 150 24.0 33.0 0.00 0.01 0.00 1 1015.6
20260504015140 57 152 24.0 33.0 0.00 0.01 0.00 1 1015.7
20260504015040 57 150 25.0 33.0 0.00 0.01 0.00 1 1015.7
20260504014934 57 148 25.0 33.0 0.00 0.01 0.00 1 1015.7
20260504014834 57 148 25.0 33.0 0.00 0.01 0.00 1 1015.7
20260504014734 57 155 25.0 33.0 0.00 0.01 0.00 1 1015.7
20260504014634 57 152 26.0 33.0 0.00 0.01 0.00 1 1015.7
20260504014533 57 151 26.0 33.0 0.00 0.01 0.00 1 1015.8
20260504014430 57 146 26.0 33.0 0.00 0.01 0.00 1 1015.7
20260504014327 57 151 26.0 33.0 0.00 0.01 0.00 1 1015.7
20260504014228 57 150 26.0 33.0 0.00 0.01 0.00 1 1015.7
20260504014126 57 151 26.0 33.0 0.00 0.01 0.00 1 1015.7
20260504014028 57 154 26.0 33.0 0.00 0.01 0.00 1 1015.7
20260504013922 57 149 25.0 33.0 0.00 0.01 0.00 1 1015.6
20260504013823 57 147 25.0 33.0 0.00 0.01 0.00 1 1015.7
20260504013722 57 147 25.0 33.0 0.00 0.01 0.00 1 1015.7
20260504013622 57 150 24.0 33.0 0.00 0.01 0.00 1 1015.7
20260504013521 57 148 24.0 33.0 0.00 0.01 0.00 1 1015.7
20260504013417 57 152 24.0 33.0 0.00 0.01 0.00 1 1015.6
20260504013317 57 147 24.0 33.0 0.00 0.01 0.00 1 1015.8
20260504013217 57 153 24.0 33.0 0.00 0.01 0.00 1 1015.8
20260504013117 57 156 23.0 33.0 0.00 0.01 0.00 1 1015.7
20260504013016 57 154 23.0 33.0 0.00 0.01 0.00 1 1015.7
20260504012918 57 152 23.0 33.0 0.00 0.01 0.00 1 1015.7
20260504012818 57 152 24.0 33.0 0.00 0.01 0.00 1 1015.8
20260504012717 57 153 23.0 33.0 0.00 0.01 0.00 1 1015.7
20260504012618 57 152 23.0 33.0 0.00 0.01 0.00 1 1015.7
20260504012517 57 148 23.0 33.0 0.00 0.01 0.00 1 1015.6
20260504012416 57 147 22.0 31.0 0.00 0.01 0.00 1 1015.7
20260504012317 57 152 23.0 31.0 0.00 0.01 0.00 1 1015.7
20260504012217 57 153 22.0 31.0 0.00 0.01 0.00 1 1015.6
20260504012117 57 150 22.0 31.0 0.00 0.01 0.00 1 1015.7
20260504012018 57 150 22.0 31.0 0.00 0.01 0.00 1 1015.8
20260504011916 57 150 22.0 31.0 0.00 0.01 0.00 1 1015.6
20260504011818 57 150 22.0 32.0 0.00 0.01 0.00 1 1015.7
20260504011714 57 152 23.0 32.0 0.00 0.01 0.00 1 1015.5
20260504011612 57 152 24.0 33.0 0.00 0.01 0.00 1 1015.6
20260504011512 57 153 24.0 33.0 0.00 0.01 0.00 1 1015.6
20260504011410 57 153 24.0 33.0 0.00 0.01 0.00 1 1015.6
20260504011312 57 148 23.0 33.0 0.00 0.01 0.00 1 1015.6
20260504011208 57 152 24.0 33.0 0.00 0.01 0.00 1 1015.6
20260504011106 57 150 25.0 33.0 0.00 0.01 0.00 1 1015.7
20260504011006 57 151 25.0 33.0 0.00 0.01 0.00 1 1015.7
20260504010904 57 154 25.0 33.0 0.00 0.01 0.00 1 1015.7
20260504010805 57 151 25.0 33.0 0.00 0.01 0.00 1 1015.6
20260504010658 57 148 24.0 33.0 0.00 0.01 0.00 1 1015.6
20260504010601 57 151 24.0 33.0 0.00 0.01 0.00 1 1015.5
20260504010459 57 156 24.0 33.0 0.00 0.01 0.00 1 1015.6
20260504010400 57 149 24.0 33.0 0.00 0.01 0.00 1 1015.7
20260504010259 57 152 25.0 36.0 0.00 0.01 0.00 1 1015.6
20260504010153 57 150 24.0 36.0 0.00 0.01 0.00 1 1015.7
20260504010052 57 151 24.0 36.0 0.00 0.01 0.00 1 1015.6
20260504005952 57 150 25.0 36.0 0.00 0.01 0.00 1 1015.5
20260504005859 57 149 25.0 36.0 0.00 0.01 0.00 1 1015.7
20260504005754 57 149 26.0 36.0 0.00 0.01 0.00 1 1015.7
20260504005648 57 154 27.0 36.0 0.00 0.01 0.00 1 1015.8
20260504005546 57 152 28.0 36.0 0.00 0.01 0.00 1 1015.7
20260504005451 57 152 28.0 36.0 0.00 0.01 0.00 1 1015.8
20260504005348 57 152 28.0 36.0 0.00 0.01 0.00 1 1015.7
20260504005248 57 152 29.0 37.0 0.00 0.01 0.00 1 1015.7
20260504005143 57 151 29.0 37.0 0.00 0.01 0.00 1 1015.7
20260504005046 57 148 29.0 37.0 0.00 0.01 0.00 1 1015.7
20260504004943 57 151 30.0 37.0 0.00 0.01 0.00 1 1015.6
20260504004843 57 152 30.0 37.0 0.00 0.01 0.00 1 1015.6
20260504004742 57 152 30.0 37.0 0.00 0.01 0.00 1 1015.7
20260504004636 57 149 29.0 37.0 0.00 0.01 0.00 1 1015.6
20260504004535 57 147 28.0 37.0 0.00 0.01 0.00 1 1015.5
20260504004435 57 149 28.0 37.0 0.00 0.01 0.00 1 1015.5
20260504004335 57 147 27.0 37.0 0.00 0.01 0.00 1 1015.4
20260504004235 57 147 26.0 36.0 0.00 0.01 0.00 1 1015.4
20260504004130 57 152 25.0 36.0 0.00 0.01 0.00 1 1015.3
20260504004030 57 151 25.0 36.0 0.00 0.01 0.00 1 1015.5
20260504003930 57 150 24.0 36.0 0.00 0.01 0.00 1 1015.4
20260504003830 57 149 24.0 36.0 0.00 0.01 0.00 1 1015.3
20260504003729 57 148 24.0 33.0 0.00 0.01 0.00 1 1015.4
20260504003624 57 150 24.0 33.0 0.00 0.01 0.00 1 1015.5
20260504003532 57 148 24.0 34.0 0.00 0.01 0.00 1 1015.4
20260504003423 57 151 25.0 34.0 0.00 0.01 0.00 1 1015.4
20260504003322 57 153 25.0 34.0 0.00 0.01 0.00 1 1015.5
20260504003224 57 154 25.0 34.0 0.00 0.01 0.00 1 1015.4
20260504003117 57 157 26.0 34.0 0.00 0.01 0.00 1 1015.3
20260504003019 57 153 26.0 34.0 0.00 0.01 0.00 1 1015.4
20260504002918 57 154 25.0 34.0 0.00 0.01 0.00 1 1015.4
20260504002816 57 151 26.0 34.0 0.00 0.01 0.00 1 1015.4
20260504002718 57 151 26.0 36.0 0.00 0.01 0.00 1 1015.4
20260504002610 57 154 26.0 36.0 0.00 0.01 0.00 1 1015.4
20260504002510 57 152 26.0 36.0 0.00 0.01 0.00 1 1015.4
20260504002410 57 154 26.0 36.0 0.00 0.01 0.00 1 1015.3
20260504002316 57 154 26.0 36.0 0.00 0.01 0.00 1 1015.4
20260504002211 57 152 25.0 36.0 0.00 0.01 0.00 1 1015.4
20260504002108 57 153 25.0 36.0 0.00 0.01 0.00 1 1015.4
20260504002008 57 152 26.0 36.0 0.00 0.01 0.00 1 1015.4
20260504001807 57 153 26.0 36.0 0.00 0.01 0.00 1 1015.4
20260504001705 57 152 26.0 33.0 0.00 0.01 0.00 1 1015.4
20260504001600 57 145 26.0 33.0 0.00 0.01 0.00 1 1015.6
20260504001458 57 148 26.0 33.0 0.00 0.01 0.00 1 1015.4
20260504001359 57 150 25.0 33.0 0.00 0.01 0.00 1 1015.5
20260504001259 57 149 25.0 33.0 0.00 0.01 0.00 1 1015.4
20260504001200 57 152 26.0 35.0 0.00 0.01 0.00 1 1015.5
20260504001054 57 150 26.0 36.0 0.00 0.01 0.00 1 1015.4
20260504000952 57 149 26.0 36.0 0.00 0.01 0.00 1 1015.5
20260504000853 57 150 26.0 36.0 0.00 0.01 0.00 1 1015.4
20260504000753 57 148 25.0 36.0 0.00 0.01 0.00 1 1015.4
20260504000654 57 152 25.0 36.0 0.00 0.01 0.00 1 1015.5
20260504000546 57 150 26.0 36.0 0.00 0.01 0.00 1 1015.5
20260504000448 57 156 26.0 36.0 0.00 0.01 0.00 1 1015.4
20260504000348 57 147 26.0 36.0 0.00 0.01 0.00 1 1015.4
20260504000248 57 154 26.0 36.0 0.00 0.01 0.00 1 1015.4
20260504000148 57 150 26.0 36.0 0.00 0.01 0.00 1 1015.3
20260504000042 57 150 25.0 36.0 0.00 0.01 0.00 1 1015.4
20260503235943 57 151 25.0 36.0 0.00 0.01 0.00 1 1015.4
20260503235844 57 150 26.0 36.0 0.00 0.01 0.00 1 1015.4
20260503235743 57 150 26.0 36.0 0.00 0.01 0.00 1 1015.4
20260503235642 57 148 27.0 36.0 0.00 0.01 0.00 1 1015.5
20260503235535 57 148 27.0 36.0 0.00 0.01 0.00 1 1015.3
20260503235434 57 147 27.0 36.0 0.00 0.01 0.00 1 1015.3
20260503235336 57 152 27.0 36.0 0.00 0.01 0.00 1 1015.4
20260503235234 57 152 26.0 36.0 0.00 0.01 0.00 1 1015.4
20260503235136 57 154 26.0 36.0 0.00 0.01 0.00 1 1015.4
20260503235028 57 156 27.0 36.0 0.00 0.01 0.00 1 1015.4
20260503234930 57 146 27.0 36.0 0.00 0.01 0.00 1 1015.3
20260503234829 57 152 26.0 36.0 0.00 0.01 0.00 1 1015.4
20260503234730 57 148 26.0 35.0 0.00 0.01 0.00 1 1015.2
20260503234629 57 150 26.0 34.0 0.00 0.01 0.00 1 1015.3
20260503234524 57 151 26.0 34.0 0.00 0.01 0.00 1 1015.3
20260503234423 57 150 26.0 34.0 0.00 0.01 0.00 1 1015.2
20260503234323 57 152 27.0 36.0 0.00 0.01 0.00 1 1015.2
20260503234222 57 154 27.0 36.0 0.00 0.01 0.00 1 1015.3
20260503234123 57 156 28.0 36.0 0.00 0.01 0.00 1 1015.2
20260503234019 57 148 28.0 37.0 0.00 0.01 0.00 1 1015.2
20260503233918 57 152 28.0 37.0 0.00 0.01 0.00 1 1015.3
20260503233818 57 150 28.0 37.0 0.00 0.01 0.00 1 1015.3
20260503233717 57 150 28.0 37.0 0.00 0.01 0.00 1 1015.3
20260503233618 57 151 28.0 37.0 0.00 0.01 0.00 1 1015.3
20260503233518 57 153 28.0 37.0 0.00 0.01 0.00 1 1015.2
20260503233411 57 152 28.0 37.0 0.00 0.01 0.00 1 1015.3
20260503233312 57 152 28.0 37.0 0.00 0.01 0.00 1 1015.3
20260503233212 57 150 28.0 37.0 0.00 0.01 0.00 1 1015.2
20260503233112 57 148 28.0 37.0 0.00 0.01 0.00 1 1015.3
20260503233005 57 152 28.0 37.0 0.00 0.01 0.00 1 1015.3
20260503232904 57 152 28.0 37.0 0.00 0.01 0.00 1 1015.3
20260503232806 57 149 29.0 37.0 0.00 0.01 0.00 1 1015.2
20260503232704 57 151 29.0 37.0 0.00 0.01 0.00 1 1015.3
20260503232605 57 148 29.0 37.0 0.00 0.01 0.00 1 1015.3
20260503232505 57 145 29.0 37.0 0.00 0.01 0.00 1 1015.2
20260503232405 57 152 29.0 37.0 0.00 0.01 0.00 1 1015.3
20260503232306 57 152 28.0 37.0 0.00 0.01 0.00 1 1015.2
20260503232204 57 148 28.0 39.0 0.00 0.01 0.00 1 1015.3
20260503232105 57 150 28.0 39.0 0.00 0.01 0.00 1 1015.3
20260503232004 57 153 28.0 39.0 0.00 0.01 0.00 1 1015.3
20260503231904 57 154 27.0 39.0 0.00 0.01 0.00 1 1015.2
20260503231805 57 155 27.0 39.0 0.00 0.01 0.00 1 1015.3
20260503231704 57 151 28.0 39.0 0.00 0.01 0.00 1 1015.3
20260503231604 57 153 28.0 39.0 0.00 0.01 0.00 1 1015.3
20260503231505 57 151 28.0 39.0 0.00 0.01 0.00 1 1015.3
20260503231406 57 147 28.0 39.0 0.00 0.01 0.00 1 1015.2
20260503231300 57 146 29.0 39.0 0.00 0.01 0.00 1 1015.2
20260503231202 57 150 29.0 39.0 0.00 0.01 0.00 1 1015.1
20260503231102 57 152 28.0 39.0 0.00 0.01 0.00 1 1015.2
20260503231002 57 154 29.0 38.0 0.00 0.01 0.00 1 1015.2
20260503230900 57 148 29.0 38.0 0.00 0.01 0.00 1 1015.2
20260503230801 57 154 29.0 38.0 0.00 0.01 0.00 1 1015.2
20260503230701 57 152 29.0 42.0 0.00 0.01 0.00 1 1015.2
20260503230602 57 146 29.0 42.0 0.00 0.01 0.00 1 1015.3
20260503230501 57 152 29.0 42.0 0.00 0.01 0.00 1 1015.3
20260503230401 57 146 29.0 42.0 0.00 0.01 0.00 1 1015.2
20260503230300 57 151 29.0 42.0 0.00 0.01 0.00 1 1015.3
20260503230200 57 154 29.0 42.0 0.00 0.01 0.00 1 1015.2
20260503230000 57 155 31.0 42.0 0.00 0.01 0.00 1 1015.3
20260503225902 57 150 31.0 42.0 0.00 0.01 0.00 1 1015.3
20260503225800 57 152 31.0 42.0 0.00 0.01 0.00 1 1015.2
20260503225700 57 149 31.0 42.0 0.00 0.01 0.00 1 1015.3
20260503225601 57 151 32.0 42.0 0.00 0.01 0.00 1 1015.3
20260503225502 57 148 31.0 42.0 0.00 0.01 0.00 1 1015.3
20260503225356 57 148 31.0 42.0 0.00 0.01 0.00 1 1015.2
20260503225257 57 147 31.0 42.0 0.00 0.01 0.00 1 1015.3
20260503225157 57 150 31.0 42.0 0.00 0.01 0.00 1 1015.3
20260503225056 57 148 31.0 42.0 0.00 0.01 0.00 1 1015.2
20260503224956 57 147 31.0 42.0 0.00 0.01 0.00 1 1015.4
20260503224856 57 150 30.0 42.0 0.00 0.01 0.00 1 1015.3
20260503224756 57 151 31.0 42.0 0.00 0.01 0.00 1 1015.4
20260503224656 57 148 31.0 41.0 0.00 0.01 0.00 1 1015.3
20260503224556 57 146 31.0 41.0 0.00 0.01 0.00 1 1015.3
20260503224457 57 149 31.0 41.0 0.00 0.01 0.00 1 1015.3
20260503224356 57 149 31.0 41.0 0.00 0.01 0.00 1 1015.3
20260503224256 57 149 31.0 41.0 0.00 0.01 0.00 1 1015.2
20260503224157 57 151 30.0 41.0 0.00 0.01 0.00 1 1015.3
20260503224057 57 148 30.0 41.0 0.00 0.01 0.00 1 1015.3
20260503223956 57 150 30.0 41.0 0.00 0.01 0.00 1 1015.3
20260503223856 57 160 30.0 41.0 0.00 0.01 0.00 1 1015.2
20260503223756 57 146 29.0 41.0 0.00 0.01 0.00 1 1015.3
20260503223656 57 148 29.0 36.0 0.00 0.01 0.00 1 1015.3
20260503223558 57 146 29.0 36.0 0.00 0.01 0.00 1 1015.3
20260503223452 57 147 29.0 38.0 0.00 0.01 0.00 1 1015.3
20260503223352 57 146 29.0 38.0 0.00 0.01 0.00 1 1015.3
20260503223253 57 152 30.0 38.0 0.00 0.01 0.00 1 1015.3
20260503223152 57 150 30.0 39.0 0.00 0.01 0.00 1 1015.2
20260503223052 57 148 30.0 39.0 0.00 0.01 0.00 1 1015.3
20260503222952 57 150 30.0 39.0 0.00 0.01 0.00 1 1015.2
20260503222854 57 151 31.0 39.0 0.00 0.01 0.00 1 1015.3
20260503222754 57 148 31.0 41.0 0.00 0.01 0.00 1 1015.3
20260503222651 57 151 31.0 41.0 0.00 0.01 0.00 1 1015.2
20260503222552 57 147 31.0 41.0 0.00 0.01 0.00 1 1015.2
20260503222452 57 149 31.0 41.0 0.00 0.01 0.00 1 1015.1
20260503222352 57 148 31.0 41.0 0.00 0.01 0.00 1 1015.3
20260503222252 57 156 31.0 41.0 0.00 0.01 0.00 1 1015.3
20260503222152 57 148 31.0 41.0 0.00 0.01 0.00 1 1015.2
20260503222052 57 149 31.0 41.0 0.00 0.01 0.00 1 1015.3
20260503221952 57 147 30.0 41.0 0.00 0.01 0.00 1 1015.1
20260503221853 57 147 30.0 41.0 0.00 0.01 0.00 1 1015.2
20260503221754 57 149 31.0 38.0 0.00 0.01 0.00 1 1015.2
20260503221653 57 148 31.0 38.0 0.00 0.01 0.00 1 1015.1
20260503221548 57 145 31.0 39.0 0.00 0.01 0.00 1 1015.1
20260503221449 57 145 32.0 39.0 0.00 0.01 0.00 1 1015.1
20260503221350 57 148 31.0 39.0 0.00 0.01 0.00 1 1015.1
20260503221248 57 146 30.0 39.0 0.00 0.01 0.00 1 1015.0
20260503221149 57 150 30.0 39.0 0.00 0.01 0.00 1 1015.1
20260503221048 57 150 30.0 39.0 0.00 0.01 0.00 1 1015.1
20260503220949 57 154 30.0 39.0 0.00 0.01 0.00 1 1015.1
20260503220849 57 148 30.0 39.0 0.00 0.01 0.00 1 1015.1
20260503220748 57 146 30.0 39.0 0.00 0.01 0.00 1 1015.1
20260503220649 57 151 29.0 39.0 0.00 0.01 0.00 1 1015.0
20260503220548 57 150 29.0 41.0 0.00 0.01 0.00 1 1015.0
20260503220448 57 148 29.0 41.0 0.00 0.01 0.00 1 1015.0
20260503220349 58 148 30.0 41.0 0.00 0.01 0.00 1 1015.0
20260503220249 57 151 31.0 41.0 0.00 0.01 0.00 1 1015.0
20260503220150 58 151 31.0 41.0 0.00 0.01 0.00 1 1015.1
20260503220048 58 150 31.0 41.0 0.00 0.01 0.00 1 1015.0
20260503215948 58 150 32.0 41.0 0.00 0.01 0.00 1 1015.0
20260503215850 58 150 32.0 41.0 0.00 0.01 0.00 1 1015.0
20260503215750 57 149 32.0 41.0 0.00 0.01 0.00 1 1015.0
20260503215644 58 151 33.0 41.0 0.00 0.01 0.00 1 1015.0
20260503215544 58 147 33.0 41.0 0.00 0.01 0.00 1 1015.0
20260503215447 58 151 32.0 41.0 0.00 0.01 0.00 1 1015.0
20260503215346 58 151 32.0 39.0 0.00 0.01 0.00 1 1015.0
20260503215245 58 146 31.0 39.0 0.00 0.01 0.00 1 1014.9
20260503215145 58 146 31.0 39.0 0.00 0.01 0.00 1 1014.9
20260503215045 58 149 31.0 39.0 0.00 0.01 0.00 1 1014.9
20260503214944 58 146 31.0 39.0 0.00 0.01 0.00 1 1015.0
20260503214844 57 146 31.0 39.0 0.00 0.01 0.00 1 1014.9
20260503214744 57 147 30.0 39.0 0.00 0.01 0.00 1 1014.9
20260503214644 58 150 30.0 37.0 0.00 0.01 0.00 1 1014.9
20260503214545 58 148 30.0 37.0 0.00 0.01 0.00 1 1015.0
20260503214445 58 151 30.0 37.0 0.00 0.01 0.00 1 1014.9
20260503214348 58 149 31.0 38.0 0.00 0.01 0.00 1 1014.9
20260503214244 57 148 31.0 38.0 0.00 0.01 0.00 1 1015.0
20260503214144 57 148 31.0 38.0 0.00 0.01 0.00 1 1014.8
20260503214044 58 145 31.0 38.0 0.00 0.01 0.00 1 1014.9
20260503213944 58 148 31.0 38.0 0.00 0.01 0.00 1 1014.9
20260503213845 57 150 31.0 38.0 0.00 0.01 0.00 1 1014.9
20260503213740 58 148 31.0 38.0 0.00 0.01 0.00 1 1014.9
20260503213640 57 148 31.0 38.0 0.00 0.01 0.00 1 1015.0
20260503213542 57 149 30.0 38.0 0.00 0.01 0.00 1 1015.0
20260503213441 57 149 30.0 38.0 0.00 0.01 0.00 1 1014.9
20260503213340 57 149 30.0 38.0 0.00 0.01 0.00 1 1014.9
20260503213241 57 150 30.0 38.0 0.00 0.01 0.00 1 1014.9
20260503213141 57 148 30.0 38.0 0.00 0.01 0.00 1 1015.0
20260503213042 57 152 30.0 38.0 0.00 0.01 0.00 1 1014.9
20260503212941 57 147 30.0 38.0 0.00 0.01 0.00 1 1014.9
20260503212840 57 148 30.0 38.0 0.00 0.01 0.00 1 1015.0
20260503212741 57 148 31.0 37.0 0.00 0.01 0.00 1 1014.9
20260503212640 57 149 31.0 37.0 0.00 0.01 0.00 1 1015.0
20260503212540 57 148 31.0 37.0 0.00 0.01 0.00 1 1014.9
20260503212440 57 150 31.0 37.0 0.00 0.01 0.00 1 1014.8
20260503212340 57 152 31.0 37.0 0.00 0.01 0.00 1 1014.9
20260503212240 57 146 31.0 37.0 0.00 0.01 0.00 1 1014.9
20260503212154 56 148 32.0 40.0 0.00 0.01 0.00 1 1014.8
20260503212146 56 149 31.0 37.0 0.00 0.01 0.00 1 1014.9
20260503211942 56 148 33.0 43.0 0.00 0.01 0.00 1 1014.9
20260503211837 56 150 33.0 44.0 0.00 0.01 0.00 1 1014.9
20260503211737 56 150 34.0 44.0 0.00 0.01 0.00 1 1014.9
20260503211636 55 147 34.0 44.0 0.00 0.01 0.00 1 1014.8
20260503211547 55 148 33.0 44.0 0.00 0.01 0.00 1 1015.0
20260503211434 55 149 33.0 44.0 0.00 0.01 0.00 1 1015.0
20260503211333 55 149 33.0 44.0 0.00 0.01 0.00 1 1014.9
20260503211232 55 148 33.0 44.0 0.00 0.01 0.00 1 1014.9
20260503211132 56 149 32.0 44.0 0.00 0.01 0.00 1 1014.9
20260503211034 56 149 32.0 44.0 0.00 0.01 0.00 1 1014.9
20260503210932 56 147 31.0 44.0 0.00 0.01 0.00 1 1014.9
20260503210832 57 146 30.0 44.0 0.01 0.01 0.00 1 1014.9
20260503210734 57 148 29.0 44.0 0.01 0.01 0.00 1 1015.0
20260503210632 57 150 30.0 42.0 0.01 0.01 0.00 1 1014.9
20260503210532 57 152 31.0 42.0 0.01 0.01 0.00 1 1014.8
20260503210433 58 152 32.0 42.0 0.01 0.01 0.00 1 1014.9
20260503210332 57 147 32.0 42.0 0.01 0.01 0.00 1 1014.9
20260503210232 57 148 32.0 42.0 0.01 0.01 0.00 1 1014.9
20260503210134 57 148 32.0 42.0 0.01 0.01 0.00 1 1014.8
20260503210030 57 147 33.0 42.0 0.01 0.01 0.00 1 1014.7
20260503205930 57 149 33.0 42.0 0.01 0.01 0.01 1 1014.8
20260503205829 57 145 33.0 42.0 0.01 0.01 0.01 1 1014.9
20260503205731 57 147 33.0 42.0 0.01 0.01 0.01 1 1014.8
20260503205625 57 146 34.0 42.0 0.01 0.01 0.01 1 1014.8
20260503205526 57 152 34.0 42.0 0.01 0.01 0.01 1 1014.7
20260503205427 57 147 34.0 42.0 0.01 0.01 0.01 1 1014.8
20260503205326 57 148 33.0 42.0 0.01 0.01 0.01 1 1014.7
20260503205227 57 150 33.0 40.0 0.01 0.01 0.01 1 1014.8
20260503205140 57 148 32.0 40.0 0.01 0.01 0.01 1 1014.7
20260503205135 57 147 32.0 40.0 0.01 0.01 0.01 1 1014.8
20260503205128 57 146 33.0 40.0 0.01 0.01 0.01 1 1014.7
20260503205122 57 148 32.0 40.0 0.01 0.01 0.01 1 1014.7
20260503205117 57 146 32.0 40.0 0.01 0.01 0.01 1 1014.7
20260503204624 57 150 32.0 44.0 0.01 0.01 0.01 1 1014.7
20260503204526 58 144 32.0 44.0 0.01 0.01 0.01 1 1014.7
20260503204427 58 145 32.0 44.0 0.01 0.01 0.01 1 1014.7
20260503204326 58 147 32.0 44.0 0.01 0.01 0.01 1 1014.6
20260503204225 57 148 32.0 44.0 0.01 0.01 0.01 1 1014.7
20260503204125 57 151 32.0 44.0 0.01 0.01 0.01 1 1014.6
20260503204026 57 148 33.0 44.0 0.01 0.01 0.01 1 1014.5
20260503203926 57 147 33.0 44.0 0.01 0.01 0.01 1 1014.6
20260503203827 57 150 33.0 44.0 0.01 0.01 0.01 1 1014.7
20260503203721 56 150 32.0 44.0 0.01 0.01 0.01 1 1014.6
20260503203623 56 147 31.0 43.0 0.01 0.01 0.01 1 1014.7
20260503203522 56 148 31.0 42.0 0.01 0.01 0.01 1 1014.6
20260503203421 56 146 31.0 42.0 0.01 0.01 0.01 1 1014.6
20260503203321 56 146 30.0 42.0 0.01 0.01 0.01 1 1014.6
20260503203221 56 144 30.0 42.0 0.01 0.01 0.01 1 1014.7
20260503203121 57 146 29.0 42.0 0.01 0.01 0.01 1 1014.6
20260503203021 57 147 29.0 38.0 0.01 0.01 0.01 1 1014.6
20260503202921 57 148 28.0 37.0 0.01 0.01 0.01 1 1014.5
20260503202821 57 148 28.0 37.0 0.01 0.01 0.01 1 1014.6
20260503202721 56 148 28.0 34.0 0.01 0.01 0.01 1 1014.5
20260503202621 56 148 28.0 34.0 0.01 0.01 0.01 1 1014.6
20260503202522 56 147 28.0 34.0 0.01 0.01 0.01 1 1014.7
20260503202421 56 146 28.0 34.0 0.01 0.01 0.01 1 1014.7
20260503202323 56 146 29.0 34.0 0.01 0.01 0.01 1 1014.6
20260503202221 56 142 29.0 36.0 0.01 0.01 0.01 1 1014.6
20260503202122 56 144 29.0 36.0 0.01 0.01 0.01 1 1014.7
20260503202022 56 144 29.0 36.0 0.01 0.01 0.01 1 1014.7
20260503201923 56 141 30.0 36.0 0.01 0.01 0.01 1 1014.7
20260503201817 56 145 30.0 36.0 0.01 0.01 0.01 1 1014.7
20260503201717 56 146 30.0 36.0 0.01 0.01 0.01 1 1014.8
20260503201617 55 143 30.0 36.0 0.01 0.01 0.01 1 1014.7
20260503201519 55 145 30.0 36.0 0.01 0.01 0.01 1 1014.7
20260503201417 55 146 31.0 37.0 0.01 0.01 0.01 1 1014.7
20260503201318 55 146 31.0 40.0 0.01 0.01 0.01 1 1014.7
20260503201218 55 146 31.0 41.0 0.01 0.01 0.01 1 1014.7
20260503201119 55 145 32.0 45.0 0.01 0.01 0.01 1 1014.7
20260503201019 55 148 33.0 46.0 0.01 0.01 0.01 1 1014.7
20260503200918 55 145 34.0 49.0 0.01 0.01 0.01 1 1014.7
20260503200817 54 146 35.0 49.0 0.00 0.00 0.00 1 1014.7
20260503200717 55 150 35.0 49.0 0.00 0.00 0.00 1 1014.7
20260503200618 55 148 35.0 49.0 0.00 0.00 0.00 1 1014.8
20260503200518 55 144 35.0 49.0 0.00 0.00 0.00 1 1014.9
20260503200417 55 144 35.0 49.0 0.00 0.00 0.00 1 1014.9
20260503200318 56 148 34.0 49.0 0.00 0.00 0.00 1 1014.8
20260503200217 56 148 34.0 49.0 0.00 0.00 0.00 1 1014.9
20260503200117 56 148 34.0 49.0 0.00 0.00 0.00 1 1014.8
20260503200019 57 148 33.0 49.0 0.00 0.00 0.00 1 1014.8
20260503195916 57 146 32.0 49.0 0.00 0.00 0.00 1 1014.6
20260503195813 58 148 32.0 46.0 0.00 0.00 0.00 1 1014.5
20260503195715 58 149 32.0 39.0 0.00 0.00 0.00 1 1014.6
20260503195614 58 150 32.0 39.0 0.00 0.00 0.00 1 1014.6
20260503195513 58 152 33.0 39.0 0.00 0.00 0.00 1 1014.6
20260503195413 58 146 33.0 41.0 0.00 0.00 0.00 1 1014.6
20260503195315 58 146 34.0 43.0 0.00 0.00 0.00 1 1014.6
20260503195214 58 148 34.0 43.0 0.00 0.00 0.00 1 1014.6
20260503195113 58 149 34.0 43.0 0.00 0.00 0.00 1 1014.6
20260503195013 58 148 34.0 43.0 0.00 0.00 0.00 1 1014.6
20260503194914 58 150 33.0 43.0 0.00 0.00 0.00 1 1014.6
20260503194813 58 152 33.0 43.0 0.00 0.00 0.00 1 1014.5
20260503194715 58 148 33.0 43.0 0.00 0.00 0.00 1 1014.5
20260503194613 58 147 32.0 43.0 0.00 0.00 0.00 1 1014.5
20260503194515 58 149 32.0 43.0 0.00 0.00 0.00 1 1014.6
20260503194413 58 150 32.0 43.0 0.00 0.00 0.00 1 1014.6
20260503194313 58 151 31.0 42.0 0.00 0.00 0.00 1 1014.5
20260503194213 58 146 31.0 41.0 0.00 0.00 0.00 1 1014.4
20260503194115 58 152 31.0 41.0 0.00 0.00 0.00 1 1014.6
20260503194009 58 149 32.0 40.0 0.00 0.00 0.00 1 1014.4
20260503193909 57 149 32.0 40.0 0.00 0.00 0.00 1 1014.6
20260503193811 57 150 32.0 40.0 0.00 0.00 0.00 1 1014.6
20260503193709 57 148 32.0 40.0 0.00 0.00 0.00 1 1014.5
20260503193609 57 149 33.0 40.0 0.00 0.00 0.00 1 1014.6
20260503193509 57 150 32.0 40.0 0.00 0.00 0.00 1 1014.5
20260503193409 57 147 32.0 40.0 0.00 0.00 0.00 1 1014.4
20260503193309 57 151 32.0 40.0 0.00 0.00 0.00 1 1014.5
20260503193211 57 146 31.0 40.0 0.00 0.00 0.00 1 1014.5
20260503193108 57 148 31.0 37.0 0.00 0.00 0.00 1 1014.5
20260503193008 57 150 30.0 37.0 0.00 0.00 0.00 1 1014.5
20260503192909 56 149 30.0 37.0 0.00 0.00 0.00 1 1014.5
20260503192810 56 148 29.0 36.0 0.00 0.00 0.00 1 1014.5
20260503192714 56 147 29.0 39.0 0.00 0.00 0.00 1 1014.6
20260503192611 56 149 29.0 39.0 0.00 0.00 0.00 1 1014.6
20260503192509 56 148 29.0 39.0 0.00 0.00 0.00 1 1014.6
20260503192408 56 148 29.0 39.0 0.00 0.00 0.00 1 1014.6
20260503192309 56 146 29.0 39.0 0.00 0.00 0.00 1 1014.5
20260503192210 56 147 30.0 39.0 0.00 0.00 0.00 1 1014.6
20260503192107 56 147 30.0 39.0 0.00 0.00 0.00 1 1014.5
20260503192101 56 146 31.0 39.0 0.00 0.00 0.00 1 1014.5
20260503192050 56 148 30.0 39.0 0.00 0.00 0.00 1 1014.5
20260503192040 56 141 30.0 39.0 0.00 0.00 0.00 1 1014.5
20260503191705 56 146 31.0 39.0 0.00 0.00 0.00 1 1014.4
20260503191606 56 143 31.0 40.0 0.00 0.00 0.00 1 1014.5
20260503191506 55 146 32.0 42.0 0.00 0.00 0.00 1 1014.4
20260503191406 55 147 32.0 42.0 0.00 0.00 0.00 1 1014.3
20260503191305 55 148 33.0 44.0 0.00 0.00 0.00 1 1014.5
20260503191204 55 145 33.0 44.0 0.00 0.00 0.00 1 1014.5
20260503191105 55 142 34.0 44.0 0.00 0.00 0.00 1 1014.4
20260503191004 55 149 35.0 44.0 0.00 0.00 0.00 1 1014.3
20260503190907 55 148 34.0 45.0 0.00 0.00 0.00 1 1014.4
20260503190806 55 145 35.0 49.0 0.00 0.00 0.00 1 1014.4
20260503190705 55 146 35.0 49.0 0.00 0.00 0.00 1 1014.4
20260503190606 55 146 36.0 49.0 0.00 0.00 0.00 1 1014.3
20260503190505 55 146 36.0 49.0 0.00 0.00 0.00 1 1014.3
20260503190405 55 147 36.0 49.0 0.00 0.00 0.00 1 1014.4
20260503190306 55 146 36.0 49.0 0.00 0.00 0.00 1 1014.5
20260503190206 55 151 35.0 49.0 0.00 0.00 0.00 1 1014.5
20260503190104 56 150 35.0 49.0 0.00 0.00 0.00 1 1014.4
20260503190004 56 144 35.0 49.0 0.00 0.00 0.00 1 1014.4
20260503185904 56 150 35.0 49.0 0.00 0.00 0.00 1 1014.4
20260503185803 56 148 34.0 43.0 0.00 0.00 0.00 1 1014.2
20260503185710 56 148 34.0 43.0 0.00 0.00 0.00 1 1014.3
20260503185603 56 152 34.0 43.0 0.00 0.00 0.00 1 1014.2
20260503185504 56 151 34.0 42.0 0.00 0.00 0.00 1 1014.1
20260503185403 56 147 33.0 42.0 0.00 0.00 0.00 1 1014.2
20260503185304 56 145 33.0 42.0 0.00 0.00 0.00 1 1014.2
20260503185203 56 146 33.0 42.0 0.00 0.00 0.00 1 1014.1
20260503185103 56 145 32.0 42.0 0.00 0.00 0.00 1 1014.0
20260503185002 56 150 32.0 42.0 0.00 0.00 0.00 1 1013.9
20260503184901 56 146 32.0 42.0 0.00 0.00 0.00 1 1014.0
20260503184802 56 149 33.0 42.0 0.00 0.00 0.00 1 1014.0
20260503184702 56 146 32.0 42.0 0.00 0.00 0.00 1 1014.0
20260503184602 55 148 31.0 41.0 0.00 0.00 0.00 1 1013.7
20260503184455 55 146 30.0 41.0 0.00 0.00 0.00 1 1013.9
20260503184353 55 150 30.0 41.0 0.00 0.00 0.00 1 1014.0
20260503184254 55 150 30.0 41.0 0.00 0.00 0.00 1 1013.9
20260503184154 55 150 30.0 41.0 0.00 0.00 0.00 1 1014.1
20260503184054 56 148 29.0 41.0 0.00 0.00 0.00 1 1014.1
20260503183951 56 147 29.0 41.0 0.00 0.00 0.00 1 1013.9
20260503183851 56 148 29.0 41.0 0.00 0.00 0.00 1 1013.9
20260503183749 56 152 29.0 41.0 0.00 0.00 0.00 1 1014.1
20260503183713 56 146 32.0 43.0 0.00 0.00 0.00 1 1013.9
20260503183707 56 150 32.0 43.0 0.00 0.00 0.00 1 1013.9
20260503183702 56 148 30.0 43.0 0.00 0.00 0.00 1 1013.9
20260503183655 57 152 30.0 38.0 0.00 0.00 0.00 1 1013.9
20260503183648 56 150 31.0 43.0 0.00 0.00 0.00 1 1014.0
20260503183145 56 152 33.0 43.0 0.00 0.00 0.00 1 1013.8
20260503183042 56 146 34.0 43.0 0.00 0.00 0.00 1 1013.9
20260503182939 56 154 34.0 43.0 0.00 0.00 0.00 1 1013.8
20260503182835 56 151 34.0 43.0 0.00 0.00 0.00 1 1013.7
20260503182737 56 148 34.0 43.0 0.00 0.00 0.00 1 1013.8
20260503182635 57 147 34.0 43.0 0.00 0.00 0.00 1 1013.8
20260503182536 57 146 34.0 43.0 0.00 0.00 0.00 1 1013.7
20260503182429 57 147 34.0 43.0 0.00 0.00 0.00 1 1013.7
20260503182329 57 144 33.0 43.0 0.00 0.00 0.00 1 1013.6
20260503182229 57 148 32.0 43.0 0.00 0.00 0.00 1 1013.6
20260503182131 57 148 31.0 43.0 0.00 0.00 0.00 1 1013.5
20260503182030 57 145 31.0 43.0 0.00 0.00 0.00 1 1013.5
20260503181924 57 146 31.0 43.0 0.00 0.00 0.00 1 1013.4
20260503181822 57 146 31.0 43.0 0.00 0.00 0.00 1 1013.5
20260503181724 57 148 31.0 43.0 0.00 0.00 0.00 1 1013.6
20260503181625 57 146 30.0 43.0 0.00 0.00 0.00 1 1013.5
20260503181524 57 147 30.0 41.0 0.00 0.00 0.00 1 1013.5
20260503181417 57 146 31.0 41.0 0.00 0.00 0.00 1 1013.5
20260503181317 57 150 31.0 41.0 0.00 0.00 0.00 1 1013.5
20260503181218 57 146 32.0 43.0 0.00 0.00 0.00 1 1013.6
20260503181119 57 145 33.0 43.0 0.00 0.00 0.00 1 1013.5
20260503180918 57 148 33.0 43.0 0.00 0.00 0.00 1 1013.5
20260503180816 56 146 33.0 43.0 0.00 0.00 0.00 1 1013.5
20260503180714 56 150 33.0 43.0 0.00 0.00 0.00 1 1013.5
20260503180613 56 146 33.0 43.0 0.00 0.00 0.00 1 1013.5
20260503180512 56 146 33.0 43.0 0.00 0.00 0.00 1 1013.5
20260503180409 56 148 34.0 43.0 0.00 0.00 0.00 1 1013.5
20260503180306 56 152 34.0 43.0 0.00 0.00 0.00 1 1013.5
20260503180207 56 150 33.0 40.0 0.00 0.00 0.00 1 1013.5
20260503180106 56 148 32.0 40.0 0.00 0.00 0.00 1 1013.6
20260503180005 56 148 32.0 40.0 0.00 0.00 0.00 1 1013.6
20260503175900 56 146 32.0 40.0 0.00 0.00 0.00 1 1013.6
20260503175758 56 148 33.0 40.0 0.00 0.00 0.00 1 1013.5
20260503175701 56 145 33.0 40.0 0.00 0.00 0.00 1 1013.4
20260503175559 56 147 33.0 40.0 0.00 0.00 0.00 1 1013.5
20260503175459 56 147 33.0 40.0 0.00 0.00 0.00 1 1013.5
20260503175355 56 149 33.0 40.0 0.00 0.00 0.00 1 1013.4
20260503175255 56 147 33.0 40.0 0.00 0.00 0.00 1 1013.5
20260503175154 55 147 34.0 43.0 0.00 0.00 0.00 1 1013.4
20260503175053 55 150 34.0 43.0 0.00 0.00 0.00 1 1013.5
20260503174954 55 150 35.0 43.0 0.00 0.00 0.00 1 1013.4
20260503174847 55 143 35.0 43.0 0.00 0.00 0.00 1 1013.5
20260503174748 55 148 35.0 43.0 0.00 0.00 0.00 1 1013.4
20260503174649 55 146 35.0 43.0 0.00 0.00 0.00 1 1013.4
20260503174547 55 146 35.0 43.0 0.00 0.00 0.00 1 1013.4
20260503174448 55 143 35.0 43.0 0.00 0.00 0.00 1 1013.5
20260503174343 55 146 35.0 43.0 0.00 0.00 0.00 1 1013.4
20260503174243 55 148 35.0 43.0 0.00 0.00 0.00 1 1013.5
20260503174141 55 146 35.0 43.0 0.00 0.00 0.00 1 1013.4
20260503174042 55 142 35.0 43.0 0.00 0.00 0.00 1 1013.4
20260503173940 55 146 35.0 45.0 0.00 0.00 0.00 1 1013.3
20260503173832 55 149 34.0 45.0 0.00 0.00 0.00 1 1013.5
20260503173731 55 147 35.0 45.0 0.00 0.00 0.00 1 1013.5
20260503173705 55 149 35.0 45.0 0.00 0.00 0.00 1 1013.5
20260503173700 55 148 35.0 45.0 0.00 0.00 0.00 1 1013.5
20260503173654 55 144 35.0 45.0 0.00 0.00 0.00 1 1013.5
20260503173648 55 148 35.0 45.0 0.00 0.00 0.00 1 1013.4
20260503173640 55 147 35.0 45.0 0.00 0.00 0.00 1 1013.5
20260503173127 56 144 34.0 45.0 0.00 0.00 0.00 1 1013.5
20260503173026 55 153 34.0 45.0 0.00 0.00 0.00 1 1013.5
20260503172927 56 147 34.0 43.0 0.00 0.00 0.00 1 1013.5
20260503172827 56 148 34.0 43.0 0.00 0.00 0.00 1 1013.5
20260503172726 56 147 33.0 43.0 0.00 0.00 0.00 1 1013.4
20260503172626 56 148 33.0 43.0 0.00 0.00 0.00 1 1013.4
20260503172523 56 148 32.0 43.0 0.00 0.00 0.00 1 1013.4
20260503172421 56 148 32.0 43.0 0.00 0.00 0.00 1 1013.4
20260503172322 56 148 31.0 43.0 0.00 0.00 0.00 1 1013.3
20260503172221 56 152 31.0 43.0 0.00 0.00 0.00 1 1013.3
20260503172122 56 152 31.0 43.0 0.00 0.00 0.00 1 1013.3
20260503172020 56 148 32.0 43.0 0.00 0.00 0.00 1 1013.4
20260503171922 56 147 32.0 43.0 0.00 0.00 0.00 1 1013.4
20260503171819 56 149 33.0 43.0 0.00 0.00 0.00 1 1013.3
20260503171719 56 150 33.0 43.0 0.00 0.00 0.00 1 1013.3
20260503171619 56 149 33.0 43.0 0.00 0.00 0.00 1 1013.3
20260503171519 56 148 34.0 46.0 0.00 0.00 0.00 1 1013.2
20260503171420 56 147 35.0 46.0 0.00 0.00 0.00 1 1013.3
20260503171320 56 146 36.0 46.0 0.00 0.00 0.00 1 1013.2
20260503171220 56 150 36.0 46.0 0.00 0.00 0.00 1 1013.2
20260503171115 56 150 36.0 46.0 0.00 0.00 0.00 1 1013.2
20260503171013 56 148 36.0 46.0 0.00 0.00 0.00 1 1013.1
20260503170912 56 150 35.0 46.0 0.00 0.00 0.00 1 1013.0
20260503170812 56 146 35.0 46.0 0.00 0.00 0.00 1 1013.2
20260503170714 56 147 35.0 46.0 0.00 0.00 0.00 1 1013.1
20260503170607 56 146 35.0 45.0 0.00 0.00 0.00 1 1013.0
20260503170509 56 145 34.0 45.0 0.00 0.00 0.00 1 1012.9
20260503170408 56 148 35.0 45.0 0.00 0.00 0.00 1 1013.0
20260503170308 56 147 34.0 45.0 0.00 0.00 0.00 1 1012.9
20260503170208 56 146 33.0 45.0 0.00 0.00 0.00 1 1012.9
20260503170105 56 148 33.0 45.0 0.00 0.00 0.00 1 1012.8
20260503160150 55 148 35.0 45.0 0.00 0.00 0.00 1 1012.8
20260503150952 55 142 34.0 42.0 0.00 0.00 0.00 1 1012.7
20260503150847 55 142 35.0 42.0 0.00 0.00 0.00 1 1012.7
20260503150747 55 137 35.0 42.0 0.00 0.00 0.00 1 1012.8
20260503150646 55 145 35.0 42.0 0.00 0.00 0.00 1 1012.8
20260503150545 55 145 35.0 42.0 0.00 0.00 0.00 1 1013.0
20260503150445 55 149 34.0 42.0 0.00 0.00 0.00 1 1012.7
20260503150341 55 148 35.0 42.0 0.00 0.00 0.00 1 1012.8
20260503150240 55 141 35.0 42.0 0.00 0.00 0.00 1 1012.7
20260503150140 55 144 34.0 42.0 0.00 0.00 0.00 1 1012.7
20260503140228 55 146 34.0 45.0 0.00 0.00 0.00 1 1012.6
20260503140128 55 146 34.0 45.0 0.00 0.00 0.00 1 1012.7
20260503131343 56 147 36.0 44.0 0.00 0.00 0.00 1 1012.6
20260503131242 56 145 36.0 44.0 0.00 0.00 0.00 1 1012.6
20260503131142 56 142 36.0 44.0 0.00 0.00 0.00 1 1012.6
20260503131042 56 144 35.0 44.0 0.00 0.00 0.00 1 1012.6
20260503130942 56 143 35.0 44.0 0.00 0.00 0.00 1 1012.7
20260503130842 56 148 35.0 44.0 0.00 0.00 0.00 1 1012.6
20260503130742 56 139 35.0 44.0 0.00 0.00 0.00 1 1012.5
20260503130644 56 140 35.0 44.0 0.00 0.00 0.00 1 1012.6
20260503130544 56 145 35.0 44.0 0.00 0.00 0.00 1 1012.5
20260503130441 56 148 35.0 44.0 0.00 0.00 0.00 1 1012.6
20260503130341 56 142 35.0 44.0 0.00 0.00 0.00 1 1012.6
20260503130239 56 146 35.0 44.0 0.00 0.00 0.00 1 1012.5
20260503130140 56 145 34.0 44.0 0.00 0.00 0.00 1 1012.5
20260503120152 54 139 30.0 39.0 0.00 0.00 0.00 1 1012.7
20260503120118 54 141 31.0 41.0 0.00 0.00 0.00 1 1012.9
20260503120109 54 142 31.0 41.0 0.00 0.00 0.00 1 1012.8
20260503110738 56 144 30.0 38.0 0.00 0.00 0.00 1 1012.8
20260503110643 56 149 30.0 40.0 0.00 0.00 0.00 1 1012.8
20260503110540 56 144 30.0 40.0 0.00 0.00 0.00 1 1012.9
20260503110439 56 140 30.0 40.0 0.00 0.00 0.00 1 1012.8
20260503110338 55 137 30.0 40.0 0.00 0.00 0.00 1 1012.8
20260503110238 55 145 30.0 40.0 0.00 0.00 0.00 1 1012.8
20260503110140 55 140 30.0 40.0 0.00 0.00 0.00 1 1012.8
20260503110135 55 146 31.0 40.0 0.00 0.00 0.00 1 1012.9
20260503110118 55 146 30.0 40.0 0.00 0.00 0.00 1 1012.9